Regional Weather Roundup
Issued by NWS

Home | Current Version | Previous Version | Text Only | Print | Product List | Glossary On
Versions: 1 2 3 4 5 6 7 8 9 10 11 12 13 14 15 16 17 18 19 20 21 22 23 24 25 26 27 28 29 30 31 32 33 34 35 36 37 38 39 40 41 42 43 44 45 46 47 48 49 50
000
ASUS43 KBIS 032020
RWRND

NORTH DAKOTA REGIONAL WEATHER ROUNDUP
NATIONAL WEATHER SERVICE BISMARCK ND
300 PM CDT SUN MAY 03 2015

NOTE: "FAIR" INDICATES FEW OR NO CLOUDS BELOW 12,000 FEET WITH NO
SIGNIFICANT WEATHER AND/OR OBSTRUCTIONS TO VISIBILITY.


NDZ001>003-009>011-017-032100-
NORTHWEST NORTH DAKOTA

CITY           SKY/WX    TMP DP  RH WIND       PRES   REMARKS
WILLISTON      LGT RAIN  64  22  20 NW21      30.03F
MINOT          SUNNY     63  24  22 NW24G30   29.98S
MINOT AFB      SUNNY     64  27  24 NW16G29   29.97S
$$

NDZ018>021-031>035-040>046-032100-
SOUTHWEST NORTH DAKOTA

CITY           SKY/WX    TMP DP  RH WIND       PRES   REMARKS
BISMARCK       MOSUNNY   67  26  21 NW14      30.00R
DICKINSON      SUNNY     61  26  26 NW13G22   30.02R
GARRISON         N/A     63  26  24 W18G25    30.00R
HETTINGER ARPT PTSUNNY   61  28  28 NW8       30.03F
$$

NDZ004>008-012>016-024-026-027-054-032100-
NORTHEAST NORTH DAKOTA

CITY           SKY/WX    TMP DP  RH WIND       PRES   REMARKS
GRAND FORKS    MOSUNNY   69  27  20 NW17G26   29.89S
GRND FRKS AFB  SUNNY     68  25  19 NW22G29   29.89S
DEVILS LAKE    SUNNY     63  27  25 NW18G26   29.93S
$$

NDZ022-023-025-028>030-036>039-047>053-032100-
SOUTHEAST NORTH DAKOTA

CITY           SKY/WX    TMP DP  RH WIND       PRES   REMARKS
FARGO          CLOUDY    65  32  29 N12       29.92S
JAMESTOWN      MOSUNNY   67  20  16 NW16G29   29.94R
$$



USA.gov is the U.S. government's official web portal to all federal, state and local government web resources and services.